Location: Alando
(42.3054°N, 9.2895°E)
Time: 10:02:05
(UTC+00:00)

Cosmos 1954 Rocket - Pass Details

Date: 09 April 2020
Orbit: 752 x 781 km, 74.0° (Epoch: 04 June)

Event Time Altitude Azimuth Distance (km) Brightness Sun altitude
Rises 19:26:25 0° 196° (SSW) 3,227 7.1 -16.2°
Reaches altitude 10° 19:28:47 10° 196° (SSW) 2,300 6.3 -16.6°
Maximum altitude 19:34:01 85° 108° (ESE) 772 3.9 -17.4°
Drops below altitude 10° 19:39:14 10° 21° (NNE) 2,298 6.6 -18.3°
Sets 19:41:36 0° 21° (NNE) 3,223 7.4 -18.6°
